Retour au catalogue

PRAETORIAN SDA_504

ActifPO
NORAD 100062·PAYLOAD·🇺🇸 United States

Lancé Jul 16, 2026 depuis Vandenberg Space Force Base

Loading…

Prochains Passages (prochaines 24 heures)

TLE

FraisSource: Space-Track

Époque: Sep 13, 2026, 18:17 UTC

1 A0062U 26163D   26256.76214585  .00000214  00000-0  17755-3 0  9990
2 A0062  81.4763 256.1199 0013825  59.8215 300.4310 13.85341225  8161

Suivez PRAETORIAN SDA_504 en temps réel avec AllMySat

Download on the App Store